CZ-3B DEB, 42459

Orbit data source: Space-Track

CZ-3B DEB, 42459 is space debris in HEO originally from a launch on Sat, 04 Sep 2010 UTC launched from the Xichang Space Center, China (XSC). Debris objects in space refer to the collection of defunct objects orbiting the Earth. Examples of debris include non-operational satellites, rocket bodies, and fragments generated from explosions, collisions, or faulty payload assembly.

Loading next visibility...
Identifier
42459, 2010-042AA
Orbit
HEO
Country
Flag of CNCN / PRC
Related business
Manufacturer
CALT
Mission
Spacecraft
Bus & Motor
Unknown
Mass
Unknown
Launch date (UTC)
2010-09-04 (15 years ago)
Launch vehicle
Unknown
Launch site
Xichang Space Center, China (XSC)
Object type
Payload
Rocket body
Debris
Shape & HBR
Unknown shape, 0.1 m
Radar Cross Section
Medium (>0.1 m² and <1 m²)

Expand to show TLE details & history
Last TLE update: 4 days ago

TLE from 4 days ago
0 CZ-3B DEB
1 42459U 10042AA  26032.94895099 -.00000191  00000-0  00000-0 0  9999
2 42459  27.5459 328.1850 7261453 227.9700  42.5234  1.87013749 76104
Epoch: 2026-02-01T22:46Z
TLE epoch observation values (Epoch: 2026-02-01T22:46:29.365Z)
Latitude
0.00037°
Longitude
-145.53627°
Altitude
19,349.835 km
Speed
4.082 km/s
True Right ascension
21h 52m 56s
True Declination
0° 00' 01"
Sunlit
Object was in daylight at epoch
Visualization orbit readout
Latitude
Unknown
Longitude
Unknown
Altitude
Unknown
Speed
Unknown
Apparent Right ascension
Unknown
Apparent Declination
Unknown
Sunlit
N/A
Visualization observer readout
Local Sidereal Time
16:13:23
Azimuth
Unknown
Elevation
Unknown
Doppler factor
Unknown
Orbital elements
Apogee altitude
41,663.233 km
Perigee altitude
1,243.675 km
Semi-major axis
27,831.591 km
Eccentricity
0.72615
Inclination
27.5459°
RAAN
328.185°
Arg. of periapsis
227.97°
True anomaly
132.19365°
Mean anomaly
42.5234°
Eccentric anomaly
83.8923°
Mean motion
0.46745 °/min
Orbital period
770.13 mins
BSTAR
0
Loading maneuver chart data...
Computing Atmospheric mass density...
Loading historical data...
Loading historical data...
Loading historical data...
Loading historical data...
Loading historical data...
Loading historical data...
Loading historical data...

Documentation

Showing up to 5 results
|